Regional Weather Roundup
Issued by NWS

Home | Current Version | Previous Version | Graphics & Text | Print | Product List | Glossary On
Versions: 1 2 3 4 5 6 7 8 9 10 11 12 13 14 15 16 17 18 19 20 21 22 23 24 25 26 27
000
ASUS45 KBOU 220407
RWRCO

WEATHER ROUNDUP FOR COLORADO
NATIONAL WEATHER SERVICE DENVER/BOULDER CO
1000 PM MDT SUN MAY 21 2017

NOTE: "FAIR" INDICATES FEW OR NO CLOUDS BELOW 12000 FEET WITH NO
SIGNIFICANT WEATHER AND/OR OBSTRUCTIONS TO VISIBILITY.

COZ001>005-013-030-031-220500-
...NORTHWEST COLORADO...

CITY           SKY/WX    TMP DP  RH WIND       PRES   REMARKS
CRAIG          LGT RAIN  49  40  71 CALM      30.27R
HAYDEN         CLOUDY    45  36  70 SE6       30.28R
MEEKER         CLOUDY    47  43  86 CALM      30.28R
RABBIT EARS PA LGT SNOW  32  32 100 E6        30.39R WCI  26
STEAMBOAT SPGS CLOUDY    44  40  86 E7        30.29R
WALDEN           N/A     34  32  93 S5        30.35R WCI  30
$$

COZ006>008-011-220500-
...WEST CENTRAL VALLEYS...

CITY           SKY/WX    TMP DP  RH WIND       PRES   REMARKS
GRAND JUNCTION FAIR      57  41  55 N8        30.20R
MONTROSE       MOCLDY    54  40  59 SE7       30.25R
EAGLE          CLOUDY    52  35  52 S8        30.27R
RIFLE          CLOUDY    56  39  53 NW5       30.23R
DELTA          MOCLDY    61  36  39 S5        30.20R
NUCLA          MOCLDY    50  43  76 E3        30.27R
$$

COZ017>023-064>068-220500-
...SOUTHWEST COLORADO...

CITY           SKY/WX    TMP DP  RH WIND       PRES   REMARKS
DURANGO        FAIR      56  29  35 N9        30.20R
CORTEZ         MOCLDY    53  40  61 E6        30.19F
PAGOSA SPRINGS FAIR      51  28  39 CALM      30.24R
TELLURIDE      LGT RAIN  39  36  87 CALM      30.37F
WOLF CREEK PAS FAIR      32  23  69 SW10      30.47R WCI  24
$$

COZ009-010-012-014-032>034-037-058>063-220500-
...CENTRAL COLORADO...

CITY           SKY/WX    TMP DP  RH WIND       PRES   REMARKS
ASPEN          CLOUDY    41  39  93 SW3       30.30R
BUENA VISTA    LGT RAIN  47  37  67 NE10G20   30.26R
COPPER MTN     FOG       34  30  86 CALM      30.42R VSB 1/2
BERTHOUD PASS  HVY SNOW  25  14  63 NW7       30.43R VSB 1/4 WCI  17
COTTONWOOD PAS CLOUDY    45  30  57 CALM      30.35R
GUNNISON       FAIR      48  35  60 SW17G24   30.27R
KREMMLING      LGT RAIN  45  37  76 NW6       30.33R
LEADVILLE      CLOUDY    38  27  64 N8        30.32R
MONARCH PASS   HVY SNOW  30  30 100 SW16      30.53R VSB<1/4 WCI  19
SALIDA         CLOUDY    56  30  37 SE5       30.31R
SUNLIGHT       SNOW      32  30  93 NW9       30.42R VSB<1/4 WCI  24
WILKERSON PASS SNOW      32  32 100 S5        30.43R VSB<1/4 WCI  27
$$

COZ069>075-220500-
...SAN LUIS VALLEY/SANGRE DE CRISTO MOUNTAINS...

CITY           SKY/WX    TMP DP  RH WIND       PRES   REMARKS
ALAMOSA        MOCLDY    54  31  41 N15       30.22R
DEL NORTE      CLOUDY    50  30  46 N10       30.24R
LA VETA PASS   FAIR      36  32  87 NE15G21   30.45S
SAGUACHE       CLOUDY    46  37  71 N12       30.28S
$$

COZ035-036-038>040-220500-
...NORTHERN COLORADO FRONT RANGE...

CITY           SKY/WX    TMP DP  RH WIND       PRES   REMARKS
DENVER INTL AP LGT RAIN  48  44  86 N7        30.26R
DMNS CITY PARK   N/A     49  43  78 NE5G15    30.26S
AURORA         MOCLDY    47  47  98 NE5       30.27R
FRONT RANGE AP NOT AVBL
ERIE MUNI ARPT RAIN      48  46  93 W3        30.26R
BOULDER MUN AP RAIN      48  46  93 SW8       30.26R
CENTENNIAL     CLOUDY    48  44  86 N6        30.26S
BROOMFIELD     LGT RAIN  48  46  93 NW9       30.27R
FORT COLLINS   FAIR      47  44  90 W3        30.24R
LONGMONT       LGT RAIN  52  45  77 SW8       30.28R
$$

COZ041-046-047-076>085-087-088-220500-
...PIKES PEAK/PALMER DIVIDE AND SOUTHERN FOOTHILLS...

CITY           SKY/WX    TMP DP  RH WIND       PRES   REMARKS
COLO. SPRINGS  MOCLDY    51  41  68 N15       30.27R
A. F. ACADEMY  CLOUDY    48  40  73 N12       30.27R
SCHRIEVER AFB  MOCLDY    47  40  76 N21G30    30.26R
CHEYENNE MTN   LGT RAIN  46  39  76 NW20G25   30.22R
ELLICOTT       LGT RAIN N/A N/A N/A NE15G25   30.24R
FALCON         CLOUDY    45  42  90 N9        30.29S
FORT CARSON    MOCLDY    52  41  67 N15       30.24R
LIMON          CLOUDY    48  44  86 N12       30.22R
MONUMENT HILL  CLOUDY    43  41  93 N5        30.31R
CANON CITY     NOT AVBL
WALSENBURG     CLOUDY    55  45  67 CALM      30.20R
TRINIDAD       MOCLDY    55  45  68 E6        30.16S
$$

COZ042>045-048>051-090-091-220500-
...NORTHEAST COLORADO...

CITY           SKY/WX    TMP DP  RH WIND       PRES   REMARKS
GREELEY ARPT   MOCLDY    50  46  86 CALM      30.24R
AKRON          CLOUDY    50  46  86 N8        30.22R
BURLINGTON     CLOUDY    55  47  74 N10G17    30.18R
WRAY           CLOUDY    50  48  93 SW3       30.18S
YUMA           CLOUDY    50  37  62 NW8       30.20R
STERLING       FAIR      48  46  93 W5        30.19R
HOLYOKE        NOT AVBL
FORT MORGAN    MOCLDY    49  46  90 SW3       30.23R
$$

COZ086-089-092>099-220500-
...SOUTHEAST COLORADO...

CITY           SKY/WX    TMP DP  RH WIND       PRES   REMARKS
PUEBLO         MOCLDY    61  41  47 E10       30.15R
LA JUNTA       FAIR      59  49  69 E14       30.12R
LAMAR          FAIR      54  48  80 E5        30.12R
SPRINGFIELD      N/A     52  48  86 S15       30.16R
$$




USA.gov is the U.S. government's official web portal to all federal, state and local government web resources and services.